Other Public Products
Issued by NWS Grand Forks, ND

Home | Current Version | Previous Version | Graphics & Text | Print | Product List | Glossary On
Versions: 1 2 3 4 5 6 7 8 9 10 11 12 13 14 15 16 17 18 19 20 21 22 23 24 25 26 27 28 29 30 31 32 33 34 35 36 37 38 39 40 41 42 43 44 45 46 47 48 49 50
045
FPUS83 KFGF 210731
OPUFGF
PRAIRIE TO PINES WEATHER ROUNDUP
NATIONAL WEATHER SERVICE EASTERN NORTH DAKOTA/GRAND FORKS ND
100 AM CST TUE NOV 21 2017

 **SATELLITE DATA USED TO AUGMENT SKY COVER AT AUTOMATED STATIONS**
 *****  WEATHER ACROSS EASTERN NORTH DAKOTA  *****

CITY           SKY/WX    TMP DP  RH WIND       PRES   REMARKS
GRAND FORKS    LGT SNOW  20  14  77 NW21G39   29.75R WCI   4
GRND FORKS AFB CLOUDY    19  10  68 NW30G38   29.76R WCI   0
GRND FORKS NWS NOT AVBL
BUXTON           N/A     22  13  68 NW29G46     N/A  WCI   5
DEVILS LAKE    MOCLDY    16  10  77 NW25G35   29.78R WCI  -3
FARGO          FLURRIES  25  16  68 NW25G36   29.73R WCI   9
WAHPETON ARPT  NOT AVBL
$$

 *****  WEATHER ACROSS CENTRAL AND WESTERN NORTH DAKOTA  *****

CITY           SKY/WX    TMP DP  RH WIND       PRES   REMARKS
JAMESTOWN      CLOUDY    17   8  67 NW30G39   29.81R WCI  -3
BISMARCK       FAIR      20   6  55 NW21G36   29.96R WCI   4
MINOT          FAIR      11   3  70 W28G38    29.94R WCI -10
MINOT AFB      FAIR      10   2  71 NW28G36   29.93R WCI -12
GARRISON         N/A     10   4  76 NW25G33   29.95R WCI -11
WILLISTON      MOCLDY     7  -1  70 N15       30.10R WCI -10
DICKINSON      FAIR      14   1  56 NW23      29.96R WCI  -5
HETTINGER      FAIR      24  11  57 NW16      29.95R WCI  11
$$

 *****  OTHER OBSERVATIONS NORTHEAST NORTH DAKOTA  *****

CITY           SKY/WX    TMP DP  RH WIND       PRES   REMARKS
WALHALLA       FLURRIES  16  14  93 NW26G39   29.77R WCI  -3
LANGDON        FLURRIES  14  10  85 NW23G40   29.76R WCI  -5
CAVALIER       MIX PCPN  16  10  79 NW26G36   29.76R WCI  -3
GRAFTON        CLOUDY    18  12  79 NW31G37   29.78R WCI  -2
CANDO          PTSUNNY   14   7  73 NW28G37   29.85R WCI  -6
FORT TOTTEN      N/A     17   9  69 NW16      29.95S WCI   2
ROLLA          CLOUDY    12   5  73 NW29G39   29.83R WCI  -9
RUGBY          PTSUNNY   14   7  73 NW24G33   29.88R WCI  -5
 ***** THE ABOVE OBSERVATIONS ARE NON NWS ARE NOT QUALITY
        CONTROLLED AND MAY MIS-REPORT RAIN FOR SNOW...
$$

 *****  OTHER OBSERVATIONS SOUTHEAST NORTH DAKOTA *****

CITY           SKY/WX    TMP DP  RH WIND       PRES   REMARKS
COOPERSTOWN    FLURRIES  19  14  79 NW25G37   29.78R WCI   2
VALLEY CITY    FLURRIES  18  12  79 NW24G37   29.80R WCI   0
OAKES            N/A     18   7  62 NW24G39   29.83R WCI   0
GWINNER          N/A     21  10  63 NW26G38   29.80R WCI   4
SHEYENNE NWR     N/A     24  11  57 NW21      29.95S WCI   9
BUFFALO          N/A     21  11  65 W25G37      N/A  WCI   4
WYNDMERE       NOT AVBL
 ***** THE ABOVE OBSERVATIONS ARE NON NWS ARE NOT QUALITY
       CONTROLLED AND MAY MIS-REPORT RAIN FOR SNOW...
$$

  *****  WEATHER ACROSS NORTHERN MINNESOTA  *****

CITY           SKY/WX    TMP DP  RH WIND       PRES   REMARKS
FLAG ISLAND    LGT SNOW  19  16  86 NW26G33   29.49R WCI   1
WARROAD        LGT SNOW  18  12  79 NW15G29   29.55R WCI   3
ROSEAU         LGT SNOW  19  12  73 NW17G24   29.58R WCI   4
HALLOCK        LGT SNOW  18  14  86 NW26G33   29.70R WCI  -1
THF RVR FALLS  FLURRIES  16  10  79 NW30G36   29.66R WCI  -4
HALSTAD          N/A     23  10  58 NW30        N/A  WCI   6
FOSSTON        CLOUDY    19  10  68 W18G31    29.64R WCI   4
BAUDETTE       FLURRIES  20  12  71 W24G35    29.47R WCI   3
WASKISH        CLOUDY    19  12  73 W24G35    29.52R WCI   2
CROOKSTON      FLURRIES  19  14  79 N29G36    29.72R WCI   1
$$
  *****  WEATHER ACROSS CENTRAL AND WEST MINNESOTA  *****

CITY           SKY/WX    TMP DP  RH WIND       PRES   REMARKS
BEMIDJI        FLURRIES  21  14  73 NW26G36   29.56R WCI   4
PARK RAPIDS    FLURRIES  23  13  65 NW24G40   29.57R WCI   7
WADENA         MIX PCPN  21  12  68 NW24G32   29.62R WCI   4
DETROIT LAKES  MOCLDY    25  14  63 NW32G39   29.66R WCI   7
MOORHEAD       RAIN      25  18  74 NW26G35   29.73R WCI   9
FERGUS FALLS   CLOUDY    25  16  68 NW20G29   29.72R WCI  11
ELBOW LAKE     PTSUNNY   25  16  67 NW20G33   29.70R WCI  11
MORRIS MN      FAIR      27  16  63 NW23G30   29.70R WCI  12
STAPLES        CLOUDY    23  12  63 W18G37    29.61R WCI   9
WHEATON        FAIR      27  12  54 NW18G26   29.76R WCI  13
$$
  *****  WEATHER ELSEWHERE ACROSS MINNESOTA  *****

CITY           SKY/WX    TMP DP  RH WIND       PRES   REMARKS
DULUTH         FAIR      30  19  63 NW23G37   29.37R WCI  17
INTRNTL FALLS  LGT SNOW  21  15  78 W16G26    29.43R WCI   7
ELY            FLURRIES  25  18  74 W18G30    29.32R WCI  11
CLOQUET        MOCLDY    30  18  59 W18G30    29.42R WCI  18
BRAINERD       FAIR      29  16  58 W17G35    29.55R WCI  17
HIBBING        MIX PCPN  28  18  66 W17G35    29.40R WCI  16
ALEXANDRIA     MOCLDY    27  18  69 NW23G32   29.64R WCI  12
SAINT CLOUD    FAIR      32  22  66 W25G32    29.57R WCI  19
MINNEAPOLIS    FAIR      39  24  55 W21G30    29.56R
$$

  *****  WEATHER ACROSS SOUTH DAKOTA  *****

CITY           SKY/WX    TMP DP  RH WIND       PRES   REMARKS
SIOUX FALLS    CLOUDY    40  20  44 NW13      29.78R
BROOKINGS      CLOUDY    34  18  52 NW14      29.74  WCI  25
WATERTOWN      CLOUDY    32  20  61 NW10      29.73R WCI  24
HURON          CLOUDY    39  22  50 NW15G23   29.82R
SISSETON         N/A     28  15  58 NW24G36   29.73R WCI  14
ABERDEEN       MOCLDY    30   9  41 NW28G43   29.82R WCI  15
MITCHELL       CLOUDY    40  24  53 NW13      29.84R
PIERRE         FLURRIES  37  24  59 NW18      29.86R
MOBRIDGE       FAIR      29  10  45 N30G41    29.86R WCI  13
RAPID CITY     LGT SNOW  31  28  89 N26       29.91R FOG     WCI  17
$$

  *****  SOME WEATHER IN NEARBY STATES *****

CITY           SKY/WX    TMP DP  RH WIND       PRES   REMARKS
GLASGOW MT     MOCLDY     8  -2  63 NW13      30.18R WCI  -8
GREAT FALLS MT LGT SNOW  23  19  85 NE13      30.14R FOG     WCI  11
CHEYENNE WY    FAIR      46  22  38 W33G43    29.91R
SCOTTSBLUFF NE FAIR      53  24  32 W18G29    29.82R
OMAHA NE       MOCLDY    38  28  67 CALM      29.72R
DES MOINES IA  MOCLDY    46  29  51 W8        29.67S
DAVENPORT IA   FAIR      47  31  53 SW12      29.67F
CHICAGO IL     MOCLDY    44  31  60 SW21G31   29.66F
EAU CLAIRE WI  FAIR      38  27  64 SW9       29.47S
LA CROSSE WI   FAIR      43  28  55 SW8       29.55R
$$

  *****  SOME NATIONAL WEATHER *****

CITY           SKY/WX    TMP DP  RH WIND       PRES   REMARKS
LA GUARDIA NY  FAIR      44  27  51 SW14      30.12S
RALEIGH NC     MOCLDY    36  30  79 CALM      30.24S
ATLANTA GA     MOCLDY    44  36  73 E7        30.16F
NEW ORLEANS LA FAIR      55  51  86 E9        30.04F
OKLAHOMA CITY  MOCLDY    43  31  62 S10       29.81F
ALBUQUERQUE NM MOCLDY    44   1  16 NW6       30.12S
SALT LAKE CITY CLOUDY    47  35  63 SE8       30.15R
LOS ANGELES CA FAIR      64  51  62 N5        30.02S
BOISE ID       CLOUDY    47  42  83 SE12      30.11R
SEATTLE WA     FAIR      42  38  85 E7        30.06F
$$

*** WEATHER ACROSS MANITOBA...SASKATCHEWAN AND ONTARIO ***
                ***ONTARIO***

CITY           SKY/WX    TMP DP  RH WIND       PRES   REMARKS
GERALDTON      LGT SNOW  34  32  93 S6        29.03F FOG
THUNDER BAY    MOCLDY    36  30  80 W12       29.13S
SIOUX LOOKOUT  LGT SNOW  16  12  86 N13G23    29.26R BLWGSNOWWCI   2
TORONTO        CLEAR     43  30  61 SW17G23   29.77S
BIG TROUT LK   FLURRIES   9   7  92 NW7       29.50R WCI  -3
PICKLE LAKE    NOT AVBL
DRYDEN         LGT SNOW  16  12  86 N12G18    29.34R WCI   3
KENORA         LGT SNOW  16  12  86 N15G25    29.43R DRFTSNOWWCI   1
$$
                *** MANITOBA***

CITY           SKY/WX    TMP DP  RH WIND       PRES   REMARKS
BRANDON        MOCLDY    10   5  79 NW17G23   29.86R WCI  -7
DAUPHIN        MOCLDY    10   5  79 N13G18    29.98R WCI  -5
ISLAND LAKE    FLURRIES  10   7  85 NW12G24   29.70R WCI  -4
PILOT MOUND      N/A     14   7  73 NW20G26     N/A  WCI  -3
THE PAS        CLOUDY     5   0  78 NW13      30.01R WCI -12
THOMPSON       FLURRIES  12   7  79 NW13G21   29.80R WCI  -3
WINNIPEG       FLURRIES  14   9  79 N25G35    29.72R WCI  -5
LYNN LAKE      FLURRIES  10   9  92 NW14G22   29.91R WCI  -5
CHURCHILL      LGT SNOW  14  12  92 NW25G35   29.58R BLWGSNOWWCI  -5
GILLAM         FLURRIES  16  10  79 NW15G21   29.67R WCI   1
$$
                ***SASKATCHEWAN***

CITY           SKY/WX    TMP DP  RH WIND       PRES   REMARKS
ESTEVAN        PTCLDY     3  -2  78 W16G22    30.05R WCI -16
KINDERSLEY     PTCLDY    -8 -15  71 NW8       30.21R WCI -23
LLOYDMINSTER   CLOUDY     0  -6  78 NW12      30.18R WCI -18
PRINCE ALBERT  FLURRIES   9   1  72 NW8       30.16R WCI  -4
REGINA         CLOUDY     0  -6  78 W18       30.10R WCI -22
YORKTON        CLOUDY     9   3  78 NW18G24   29.98R WC



USA.gov is the U.S. government's official web portal to all federal, state and local government web resources and services.